Tracking 29747 objects as of 10-Oct-2024
HD Live streaming from Space Station
objects crossing your sky now

FLOCK 4Q 8

Track FLOCK 4Q 8 now!
10-day predictions
FLOCK 4Q 8 is classified as:


NORAD ID: 58279
Int'l Code: 2023-174Z
Perigee: 481.0 km
Apogee: 494.7 km
Inclination: 97.4 °
Period: 94.2 minutes
Semi major axis: 6858 km
RCS: Unknown
Launch date: November 11, 2023
Source: United States (US)
Launch site: AIR FORCE WESTERN TEST RANGE (AFWTR)
Your satellite tracking list
Your tracking list is empty




NASA's NSSDC Master Catalog

Two Line Element Set (TLE):
1 58279U 23174Z   24283.79427963  .00122105  00000-0  43519-2 0  9999
2 58279  97.4486 357.5875 0009992 209.3043 150.7637 15.28359064 51144
Source of the keplerian elements: AFSPC